SS3 Terra Alta 1 (gravel & asphalt) (38.95 km)

Stage-

Pos # Driver Time Diff Prev Diff 1st
1. 4 NORA. MIKKELSEN 24:55.0
2. 14 NORM. OSTBERG 24:57.7 +2.7 +2.7
3. 1 FRAS. OGIER 24:57.8 +0.1 +2.8
4. 7 GBRK. MEEKE 25:04.6 +6.8 +9.6
5. 6 ESPD. SORDO 25:05.9 +1.3 +10.9
6. 2 ESTO. TANAK 25:06.7 +0.8 +11.7
7. 11 FINJ. HÄNNINEN 25:07.5 +0.8 +12.5
8. 10 FINJ. LATVALA 25:07.6 +0.1 +12.6
9. 5 BELT. NEUVILLE 25:12.4 +4.8 +17.4
10. 8 FRAS. LEFEBVRE 25:24.6 +12.2 +29.6
11. 3 GBRE. EVANS 25:25.6 +1.0 +30.6
12. 12 FINE. LAPPI 25:42.8 +17.2 +47.8
13. 82 FRAE. CAMILI 25:48.2 +5.4 +53.2
14. 32 FINT. SUNINEN 26:03.3 +15.1 +1:08.3
15. 83 NORO. VEIBY 26:08.1 +4.8 +1:13.1
16. 84 FRAP. LOUBET 26:27.7 +19.6 +1:32.7
17. 33 ROUS. TEMPESTINI 26:28.8 +1.1 +1:33.8
18. 34 MEXB. GUERRA 26:41.2 +12.4 +1:46.2
19. 9 AREK. AL QASSIMI 26:45.5 +4.3 +1:50.5
20. 88 CHEJ. TÖDTLI 26:54.6 +9.1 +1:59.6
21. 37 POLL. PIENIAZEK 26:59.2 +4.6 +2:04.2
22. 20 UKRV. GORBAN 27:17.8 +18.6 +2:22.8
23. 31 CZEJ. KOPECKY 27:17.8 +0.0 +2:22.8
24. 42 FINJ. NORDGREN 27:25.8 +8.0 +2:30.8
25. 45 TURO. AVCIOGLU 27:27.3 +1.5 +2:32.3
26. 46 GBRR. YATES 28:00.1 +32.8 +3:05.1
27. 62 ESPN. SOLANS 28:00.1 +0.0 +3:05.1
28. 63 FRAN. CIAMIN 28:14.7 +14.6 +3:19.7
29. 65 FRAT. FOLB 28:20.2 +5.5 +3:25.2
30. 89 ECUM. NAVAS 28:27.5 +7.3 +3:32.5
31. 21 FRAJ. RAOUX 28:29.3 +1.8 +3:34.3
32. 44 ESPC. GARCIA 28:30.6 +1.3 +3:35.6
33. 87 IRLE. BOLAND 28:38.5 +7.9 +3:43.5
34. 66 SWED. RADSTRÖM 28:41.6 +3.1 +3:46.6
35. 64 DEUJ. TANNERT 28:47.6 +6.0 +3:52.6
36. 61 FRAR. ASTIER 28:52.3 +4.7 +3:57.3
37. 93 ESPF. MACIAS 29:11.8 +19.5 +4:16.8
38. 90 ESPJ. SOLANS 29:15.6 +3.8 +4:20.6
39. 95 ANDM. BESOLI 29:49.0 +33.4 +4:54.0
40. 91 ESPJ. FONT 29:54.6 +5.6 +4:59.6
41. 92 ESPJ. PELAEZ 30:02.0 +7.4 +5:07.0
42. 22 GRCJ. SERDERIDIS 30:05.4 +3.4 +5:10.4
43. 96 SWEM. ANDERSSON 30:25.1 +19.7 +5:30.1
44. 94 ESPG. SOSA 30:52.7 +27.6 +5:57.7
45. 104 ESPR. ROZADA 30:53.1 +0.4 +5:58.1
46. 107 ESPS. FRANCOLI 31:29.6 +36.5 +6:34.6
47. 100 ESPJ. DOMENECH 31:36.6 +7.0 +6:41.6
48. 105 ESPJ. BASSAS 31:42.2 +5.6 +6:47.2
49. 109 ESPA. SERRATOSA 31:56.8 +14.6 +7:01.8
50. 43 GBRJ. ARMSTRONG 32:10.5 +13.7 +7:15.5
51. 102 DEUR. KUHN 32:12.9 +2.4 +7:17.9
52. 106 ESPA. VILA 32:21.4 +8.5 +7:26.4
53. 110 ESPM. PARADELL 32:52.5 +31.1 +7:57.5
54. 97 ITAG. TAVELLI 32:57.7 +5.2 +8:02.7
55. 35 GBRG. GREENSMITH 33:03.3 +5.6 +8:08.3
56. 38 JPNT. KATSUTA 33:03.3 +0.0 +8:08.3
57. 40 JPNH. ARAI 33:03.3 +0.0 +8:08.3
58. 41 ITAF. ANDOLFI 33:03.3 +0.0 +8:08.3
59. 99 FRAP. GOMEZ 33:25.7 +22.4 +8:30.7
60. 98 FRAJ. GUIBERT 33:26.8 +1.1 +8:31.8
61. 101 ESPZ. ESTEBAN 33:47.0 +20.2 +8:52.0
62. 112 ESPP. SUAREZ 33:59.4 +12.4 +9:04.4
63. 39 FRAY. BONATO 34:23.3 +23.9 +9:28.3
64. 113 ESPÓ. FREIRE 34:28.0 +4.7 +9:33.0
65. 114 ESPE. SANS 35:38.0 +1:10.0 +10:43.0
66. 103 PRTJ. RAMOS 37:53.1 +2:15.1 +12:58.1
67. 111 ANDC. RIBEIRO 38:29.6 +36.5 +13:34.6
68. 115 ITAC. GIAMPAOLI 38:29.6 +0.0 +13:34.6
69. 108 ESPJ. SALINAS 49:03.5 +10:33.9 +24:08.5

Overall-

Pos # Driver Time Diff Prev Diff 1st
1. 4 NORA. MIKKELSEN 36:20.9
2. 14 NORM. OSTBERG 36:21.5 +0.6 +0.6
3. 1 FRAS. OGIER 36:25.5 +4.0 +4.6
4. 2 ESTO. TANAK 36:28.3 +2.8 +7.4
5. 7 GBRK. MEEKE 36:28.5 +0.2 +7.6
6. 6 ESPD. SORDO 36:33.2 +4.7 +12.3
7. 5 BELT. NEUVILLE 36:36.7 +3.5 +15.8
8. 10 FINJ. LATVALA 36:36.9 +0.2 +16.0
9. 11 FINJ. HÄNNINEN 36:41.3 +4.4 +20.4
10. 3 GBRE. EVANS 36:54.4 +13.1 +33.5
11. 8 FRAS. LEFEBVRE 37:01.4 +7.0 +40.5
12. 12 FINE. LAPPI 37:13.4 +12.0 +52.5
13. 82 FRAE. CAMILI 37:29.2 +15.8 +1:08.3
14. 32 FINT. SUNINEN 37:43.6 +14.4 +1:22.7
15. 83 NORO. VEIBY 37:51.7 +8.1 +1:30.8
16. 84 FRAP. LOUBET 38:25.2 +33.5 +2:04.3
17. 33 ROUS. TEMPESTINI 38:39.4 +14.2 +2:18.5
18. 34 MEXB. GUERRA 39:00.4 +21.0 +2:39.5
19. 9 AREK. AL QASSIMI 39:04.8 +4.4 +2:43.9
20. 31 CZEJ. KOPECKY 39:15.3 +10.5 +2:54.4
21. 88 CHEJ. TÖDTLI 39:22.8 +7.5 +3:01.9
22. 37 POLL. PIENIAZEK 39:23.5 +0.7 +3:02.6
23. 45 TURO. AVCIOGLU 39:51.5 +28.0 +3:30.6
24. 20 UKRV. GORBAN 39:51.9 +0.4 +3:31.0
25. 42 FINJ. NORDGREN 39:57.8 +5.9 +3:36.9
26. 46 GBRR. YATES 40:23.8 +26.0 +4:02.9
27. 62 ESPN. SOLANS 40:58.0 +34.2 +4:37.1
28. 44 ESPC. GARCIA 41:01.0 +3.0 +4:40.1
29. 63 FRAN. CIAMIN 41:10.2 +9.2 +4:49.3
30. 65 FRAT. FOLB 41:16.2 +6.0 +4:55.3
31. 89 ECUM. NAVAS 41:28.5 +12.3 +5:07.6
32. 66 SWED. RADSTRÖM 41:41.6 +13.1 +5:20.7
33. 21 FRAJ. RAOUX 41:52.6 +11.0 +5:31.7
34. 64 DEUJ. TANNERT 42:02.1 +9.5 +5:41.2
35. 87 IRLE. BOLAND 42:06.5 +4.4 +5:45.6
36. 61 FRAR. ASTIER 42:12.4 +5.9 +5:51.5
37. 90 ESPJ. SOLANS 42:44.7 +32.3 +6:23.8
38. 93 ESPF. MACIAS 42:48.6 +3.9 +6:27.7
39. 95 ANDM. BESOLI 43:42.2 +53.6 +7:21.3
40. 91 ESPJ. FONT 44:00.7 +18.5 +7:39.8
41. 22 GRCJ. SERDERIDIS 44:11.3 +10.6 +7:50.4
42. 92 ESPJ. PELAEZ 44:13.5 +2.2 +7:52.6
43. 96 SWEM. ANDERSSON 44:26.5 +13.0 +8:05.6
44. 43 GBRJ. ARMSTRONG 45:01.1 +34.6 +8:40.2
45. 40 JPNH. ARAI 45:06.4 +5.3 +8:45.5
46. 94 ESPG. SOSA 45:09.1 +2.7 +8:48.2
47. 104 ESPR. ROZADA 45:13.8 +4.7 +8:52.9
48. 107 ESPS. FRANCOLI 45:56.9 +43.1 +9:36.0
49. 105 ESPJ. BASSAS 46:14.0 +17.1 +9:53.1
50. 100 ESPJ. DOMENECH 46:15.0 +1.0 +9:54.1
51. 39 FRAY. BONATO 46:30.6 +15.6 +10:09.7
52. 109 ESPA. SERRATOSA 46:42.4 +11.8 +10:21.5
53. 106 ESPA. VILA 46:49.4 +7.0 +10:28.5
54. 102 DEUR. KUHN 47:26.6 +37.2 +11:05.7
55. 97 ITAG. TAVELLI 47:51.2 +24.6 +11:30.3
56. 110 ESPM. PARADELL 47:58.0 +6.8 +11:37.1
57. 101 ESPZ. ESTEBAN 48:35.7 +37.7 +12:14.8
58. 98 FRAJ. GUIBERT 48:50.4 +14.7 +12:29.5
59. 99 FRAP. GOMEZ 49:01.3 +10.9 +12:40.4
60. 112 ESPP. SUAREZ 49:08.4 +7.1 +12:47.5
61. 113 ESPÓ. FREIRE 50:33.6 +1:25.2 +14:12.7
62. 114 ESPE. SANS 52:14.0 +1:40.4 +15:53.1
63. 111 ANDC. RIBEIRO 52:59.2 +45.2 +16:38.3
64. 103 PRTJ. RAMOS 53:00.2 +1.0 +16:39.3
65. 115 ITAC. GIAMPAOLI 53:53.9 +53.7 +17:33.0
66. 35 GBRG. GREENSMITH 58:43.6 +4:49.7 +22:22.7
67. 41 ITAF. ANDOLFI 58:43.6 +0.0 +22:22.7
68. 108 ESPJ. SALINAS 1:03:31.6 +4:48.0 +27:10.7
69. 38 JPNT. KATSUTA 1:17:48.0 +14:16.4 +41:27.1